ONEWEB-0098 (45442 NORAD) Tracking and Keplerian Element Data

This shows tracking and keplerian element data for the satellite.

Feedback or suggestion? Click here.




ElementValue
Catalog45442
NameONEWEB-0098
Epoch Orbit3312
Epoch Day304.91667824
Epoch Year2020
RAAN70.0734
Inclination87.8234
Eccentricity0.0022324
Argument of Perigee213.9934
Mean Anonmoly164.7257
Mean Motion13.85739252
Decay Rate1.6E-07
L11 45442U 20020U 20304.91667824 .00000016 00000-0 00000+0 0 9991
L22 45442 87.8234 70.0734 0022324 213.9934 164.7257 13.85739252 33124

Live tracking and technical data element details for ONEWEB-0098 (NORAD 45442). ONEWEB-0098 can be tracked NOW for your location showing map with azimuth and elevation plus other details from your city location.

Track the satellite on the map from your city or location and see movement details for azimuth, elevation, latitude, longitude, range, height, and movement on the map or in text.







IsCatalogInMostPopularTable: catalog: 45442, numindb: 52
Update: records affected: 1



GetName: 45442 ONEWEB-0098

Hit Count: updated at: Sat, 31 Oct 2020 12:37:54 GMT